Location: Bosdarros
(43.2167°N, 0.3667°W)
Time: 15:47:06
(UTC+00:00)

NOSS 3-1 (C) - Pass Details

Date: 22 April 2021
Orbit: 732 x 1476 km, 63.4° (Epoch: 18 April)

Event Time Altitude Azimuth Distance (km) Brightness Sun altitude
Rises 21:06:57 0° 325° (NW) 3,890 8.1 -21.7°
Reaches altitude 10° 21:09:33 10° 331° (NNW) 3,035 7.1 -22.1°
Maximum altitude 21:16:46 52° 46° (NE) 1,571 4.5 -23.0°
Enters shadow 21:20:23 33° 103° (ESE) 2,119 4.8 -23.4°
